DELTA 1 DEB, 10709

Orbit data source: Space-Track

DELTA 1 DEB, 10709 is space debris in SSO originally from a launch on Thu, 29 Jul 1976 UTC launched from the Air Force Western Test Range (AFWTR). Debris objects in space refer to the collection of defunct objects orbiting the Earth. Examples of debris include non-operational satellites, rocket bodies, and fragments generated from explosions, collisions, or faulty payload assembly.

Loading next visibility...
Identifier
10709, 1976-077AE
Orbit
SSO
Last TLE update
1 day ago
Origin
Manufacturer
Unknown
Mission
Spacecraft
Bus & Motor
Unknown
Mass
Unknown
Launch date (UTC)
1976-07-29 (49 years ago)
Launch vehicle
Unknown
Launch site
Air Force Western Test Range (AFWTR)
Object type
Payload
Rocket body
Debris
Shape & HBR
Unknown
Radar Cross Section
Medium (>0.1 m² and <1 m²)

Expand to show TLE details & history

TLE from 1 day ago
0 DELTA 1 DEB
1 10709U 76077AE  25181.13620251 -.00000435  00000-0 -26818-2 0  9992
2 10709 101.9132 247.7287 0030851 116.2218 274.9290 12.46564317222166
Epoch: 2025-06-30T03:16Z
TLE epoch observation values (Epoch: 2025-06-30T03:16:07.896Z)
Latitude
30.11522°
Longitude
-86.74894°
Altitude
1,480.37 km
Speed
7.127 km/s
True Right ascension
16h 02m 56s
True Declination
29° 58' 48"
Sunlit
Object was in daylight at epoch
Visualization orbit readout
Latitude
-68.87499°
Longitude
68.57223°
Altitude
1,522.698 km
Speed
7.096 km/s
Apparent Right ascension
06h 49m 44s
Apparent Declination
-65° 09' 32"
Sunlit
Object is in daylight
Visualization observer readout
Local Sidereal Time
20:58:48
Azimuth
154.4° SSE
Elevation
-58.733°
Doppler factor
1
Orbital elements
Apogee altitude
1,500.692 km
Perigee altitude
1,452.227 km
Semi-major axis
7,854.596 km
Eccentricity
0.00309
Inclination
101.9132°
RAAN
247.7287°
Arg. of periapsis
116.2218°
True anomaly
Unknown
Mean anomaly
274.929°
Eccentric anomaly
Unknown
Mean motion
3.11787 °/min
Orbital period
115.46 mins
BSTAR
-0.0026818
Loading maneuver chart data...
Loading SW <> Apogee altitude chart data...
Loading historical data...
Loading historical data...
Loading historical data...
Loading historical data...
Loading historical data...
Loading historical data...
Loading historical data...

DELTA 1 DEB Visibility forecast

Observer location: undefined°, undefined°

Span
Click to sort rows by Start time (UTC) header in descending order
Start Az.
Max El. time (UTC)
Max El. Az.
Max El.
End time (UTC)
End Az.
14 mins2025-07-01 16:20:31.906Z36.685° NE2025-07-01 16:27:31.906Z98.636° ESE29.553°2025-07-01 16:34:31.906Z159.517° S
14 mins2025-07-01 18:14:31.906Z5.128° NNE2025-07-01 18:21:31.906Z284.363° WNW38.226°2025-07-01 18:28:31.906Z223.809° SW
14 mins2025-07-02 03:23:31.906Z129.793° SE2025-07-02 03:29:31.906Z66.421° ENE37.341°2025-07-02 03:37:31.906Z352.482° N
14 mins2025-07-02 05:16:31.906Z199.998° SSW2025-07-02 05:23:31.906Z267.059° W31.055°2025-07-02 05:30:31.906Z325.86° NNW
|